Location: Doughton_Park
(36.4250°N, 81.1830°W)
Time: 23:19:21
(UTC-05:00)

Envisat - Visible Passes

Search period start: 16 November 2019 00:00
Search period end: 26 November 2019 00:00
Orbit: 764 x 766 km, 98.1° (Epoch: 16 November)

Date Brightness Start Highest point End Pass type
(mag) Time Alt. Az. Time Alt. Az. Time Alt. Az.
16 Nov 5.9 06:16:54 10° NE 06:20:44 21° E 06:24:33 10° SE visible
16 Nov 4.5 19:07:07 10° SSW 19:11:48 37° W 19:16:31 10° NNW visible
17 Nov 3.0 18:29:54 10° SSE 18:34:58 89° WSW 18:40:05 10° NNW visible
18 Nov 3.4 17:53:39 10° SE 17:58:20 39° ENE 18:03:03 10° N visible
18 Nov 5.5 19:33:42 10° SW 19:37:27 21° W 19:41:14 10° NW visible
19 Nov 6.0 06:06:11 10° NE 06:09:22 17° E 06:12:32 10° SE visible
19 Nov 4.0 18:55:36 10° S 19:00:30 48° W 19:05:25 10° NNW visible
20 Nov 2.9 18:18:41 10° SSE 18:23:43 72° ENE 18:28:47 10° N visible
20 Nov 6.2 20:01:55 10° WSW 20:03:12 11° W 20:04:29 10° WNW visible
21 Nov 5.3 06:30:36 10° NE 06:35:03 30° E 06:39:28 10° SSE visible
21 Nov 3.7 17:42:43 10° SE 17:47:08 31° ENE 17:51:34 10° N visible
21 Nov 5.1 19:21:53 10° SSW 19:26:06 27° W 19:30:22 10° NW visible
22 Nov 6.2 05:55:49 10° ENE 05:57:59 13° E 06:00:09 10° ESE visible
22 Nov 3.5 18:44:11 10° S 18:49:12 63° W 18:54:15 10° NNW visible
23 Nov 3.0 18:07:33 10° SSE 18:12:29 56° ENE 18:17:26 10° N visible
23 Nov 5.9 19:49:05 10° SW 19:51:48 15° W 19:54:34 10° WNW visible
24 Nov 5.7 06:19:40 10° NE 06:23:42 23° E 06:27:43 10° SSE visible
24 Nov 4.0 17:31:54 10° ESE 17:35:58 25° ENE 17:40:01 10° NNE visible
24 Nov 4.6 19:10:12 10° SSW 19:14:46 34° W 19:19:22 10° NNW visible
25 Nov 3.1 18:32:51 10° S 18:37:56 81° W 18:43:01 10° NNW visible
